Time,TemperatureF,DewpointF,PressureIn,WindDirection,WindDirectionDegrees,WindSpeedMPH,WindSpeedGustMPH,Humidity,HourlyPrecipIn,Conditions,Clouds,dailyrainin,SoftwareType,DateUTC
2013-09-11 00:06:00,69.9,68.0,30.17,WNW,292,0.0,1.0,94,0.00,,,0.00,weatherlink.com 1.10,2013-09-11 04:06:00,
2013-09-11 00:21:00,69.8,68.0,30.16,WNW,292,0.0,0.0,94,0.00,,,0.00,weatherlink.com 1.10,2013-09-11 04:21:00,
2013-09-11 00:36:00,69.3,68.0,30.17,WNW,292,0.0,0.0,94,0.00,,,0.00,weatherlink.com 1.10,2013-09-11 04:36:00,
2013-09-11 00:51:00,68.7,67.0,30.16,WNW,292,0.0,2.0,95,0.00,,,0.00,weatherlink.com 1.10,2013-09-11 04:51:00,
2013-09-11 01:06:00,68.7,67.0,30.16,WNW,292,0.0,0.0,95,0.00,,,0.00,weatherlink.com 1.10,2013-09-11 05:06:00,
2013-09-11 01:21:00,68.6,67.0,30.16,WNW,292,0.0,1.0,94,0.00,,,0.00,weatherlink.com 1.10,2013-09-11 05:21:00,
2013-09-11 01:36:00,68.1,66.0,30.15,WNW,292,0.0,1.0,94,0.00,,,0.00,weatherlink.com 1.10,2013-09-11 05:36:00,
2013-09-11 01:51:00,67.8,66.0,30.15,WNW,292,0.0,0.0,95,0.00,,,0.00,weatherlink.com 1.10,2013-09-11 05:51:00,
2013-09-11 02:06:00,67.6,67.0,30.15,WNW,292,0.0,0.0,96,0.00,,,0.00,weatherlink.com 1.10,2013-09-11 06:06:00,
2013-09-11 02:21:00,67.8,67.0,30.15,WNW,292,0.0,2.0,96,0.00,,,0.00,weatherlink.com 1.10,2013-09-11 06:21:00,
2013-09-11 02:36:00,67.6,67.0,30.15,WNW,292,0.0,1.0,96,0.00,,,0.00,weatherlink.com 1.10,2013-09-11 06:36:00,
2013-09-11 02:51:00,67.4,66.0,30.14,WNW,292,0.0,0.0,96,0.00,,,0.00,weatherlink.com 1.10,2013-09-11 06:51:00,
2013-09-11 03:06:00,67.1,66.0,30.14,WNW,292,0.0,0.0,96,0.00,,,0.00,weatherlink.com 1.10,2013-09-11 07:06:00,
2013-09-11 03:21:00,66.8,65.0,30.14,WNW,292,0.0,0.0,95,0.00,,,0.00,weatherlink.com 1.10,2013-09-11 07:21:00,
2013-09-11 03:51:00,66.5,65.0,30.14,WNW,292,0.0,0.0,95,0.00,,,0.00,weatherlink.com 1.10,2013-09-11 07:51:00,
2013-09-11 04:06:00,66.3,65.0,30.14,WNW,292,0.0,0.0,96,0.00,,,0.00,weatherlink.com 1.10,2013-09-11 08:06:00,
2013-09-11 04:21:00,66.2,65.0,30.14,WNW,292,0.0,0.0,96,0.00,,,0.00,weatherlink.com 1.10,2013-09-11 08:21:00,
2013-09-11 04:36:00,66.2,65.0,30.14,WNW,292,0.0,0.0,96,0.00,,,0.00,weatherlink.com 1.10,2013-09-11 08:36:00,
2013-09-11 04:51:00,65.2,64.0,30.14,WSW,244,0.0,3.0,96,0.00,,,0.00,weatherlink.com 1.10,2013-09-11 08:51:00,
2013-09-11 05:06:00,65.3,65.0,30.14,WSW,244,0.0,3.0,98,0.00,,,0.00,weatherlink.com 1.10,2013-09-11 09:06:00,
2013-09-11 05:21:00,65.2,64.0,30.14,WSW,245,0.0,2.0,97,0.00,,,0.00,weatherlink.com 1.10,2013-09-11 09:21:00,
2013-09-11 05:36:00,65.1,65.0,30.15,WSW,245,0.0,1.0,98,0.00,,,0.00,weatherlink.com 1.10,2013-09-11 09:36:00,
2013-09-11 05:51:00,64.9,64.0,30.15,NNE,31,0.0,3.0,97,0.00,,,0.00,weatherlink.com 1.10,2013-09-11 09:51:00,
2013-09-11 06:06:00,64.3,64.0,30.16,NNE,31,0.0,0.0,97,0.00,,,0.00,weatherlink.com 1.10,2013-09-11 10:06:00,
2013-09-11 06:21:00,64.1,63.0,30.16,NNE,31,0.0,1.0,97,0.00,,,0.00,weatherlink.com 1.10,2013-09-11 10:21:00,
2013-09-11 06:36:00,64.6,64.0,30.16,NNE,31,0.0,1.0,98,0.00,,,0.00,weatherlink.com 1.10,2013-09-11 10:36:00,
2013-09-11 06:51:00,64.7,64.0,30.17,East,87,0.0,2.0,98,0.00,,,0.00,weatherlink.com 1.10,2013-09-11 10:51:00,
2013-09-11 07:06:00,64.5,64.0,30.17,East,91,0.0,3.0,97,0.00,,,0.00,weatherlink.com 1.10,2013-09-11 11:06:00,
2013-09-11 07:21:00,64.6,64.0,30.17,East,91,0.0,1.0,98,0.00,,,0.00,weatherlink.com 1.10,2013-09-11 11:21:00,
2013-09-11 07:36:00,64.4,64.0,30.17,East,95,1.0,3.0,97,0.00,,,0.00,weatherlink.com 1.10,2013-09-11 11:36:00,
2013-09-11 07:51:00,64.6,64.0,30.18,East,95,1.0,1.0,97,0.00,,,0.00,weatherlink.com 1.10,2013-09-11 11:51:00,
2013-09-11 08:06:00,64.8,64.0,30.18,East,93,0.0,1.0,97,0.00,,,0.00,weatherlink.com 1.10,2013-09-11 12:06:00,
2013-09-11 08:21:00,65.8,65.0,30.18,East,93,0.0,2.0,97,0.00,,,0.00,weatherlink.com 1.10,2013-09-11 12:21:00,
2013-09-11 08:36:00,66.8,66.0,30.19,East,89,1.0,1.0,97,0.00,,,0.00,weatherlink.com 1.10,2013-09-11 12:36:00,
2013-09-11 08:51:00,67.3,66.0,30.19,East,89,0.0,1.0,96,0.00,,,0.00,weatherlink.com 1.10,2013-09-11 12:51:00,
2013-09-11 09:06:00,67.9,67.0,30.19,East,89,0.0,1.0,95,0.00,,,0.00,weatherlink.com 1.10,2013-09-11 13:06:00,
2013-09-11 09:21:00,68.8,67.0,30.19,East,89,0.0,1.0,95,0.00,,,0.00,weatherlink.com 1.10,2013-09-11 13:21:00,
2013-09-11 09:37:00,69.7,68.0,30.19,East,89,1.0,1.0,94,0.00,,,0.00,weatherlink.com 1.10,2013-09-11 13:37:00,
2013-09-11 09:52:00,70.8,69.0,30.19,East,89,0.0,1.0,93,0.00,,,0.00,weatherlink.com 1.10,2013-09-11 13:52:00,
2013-09-11 10:07:00,72.0,70.0,30.18,East,89,1.0,2.0,92,0.00,,,0.00,weatherlink.com 1.10,2013-09-11 14:07:00,
2013-09-11 10:22:00,72.9,69.0,30.18,SSE,165,3.0,3.0,87,0.00,,,0.00,weatherlink.com 1.10,2013-09-11 14:22:00,
2013-09-11 10:37:00,73.6,70.0,30.18,SSW,212,1.0,3.0,87,0.00,,,0.00,weatherlink.com 1.10,2013-09-11 14:37:00,
2013-09-11 10:52:00,74.8,70.0,30.18,SW,218,0.0,4.0,86,0.00,,,0.00,weatherlink.com 1.10,2013-09-11 14:52:00,
2013-09-11 11:07:00,76.3,71.0,30.18,SSW,213,2.0,4.0,84,0.00,,,0.00,weatherlink.com 1.10,2013-09-11 15:07:00,
2013-09-11 11:22:00,77.5,71.0,30.17,SSW,202,0.0,4.0,80,0.00,,,0.00,weatherlink.com 1.10,2013-09-11 15:22:00,
2013-09-11 11:37:00,78.0,71.0,30.17,WNW,295,0.0,3.0,80,0.00,,,0.00,weatherlink.com 1.10,2013-09-11 15:37:00,
2013-09-11 11:52:00,78.4,72.0,30.17,NNE,18,1.0,3.0,80,0.00,,,0.00,weatherlink.com 1.10,2013-09-11 15:52:00,
2013-09-11 12:07:00,78.7,71.0,30.16,NNE,18,1.0,2.0,77,0.00,,,0.00,weatherlink.com 1.10,2013-09-11 16:07:00,
2013-09-11 12:22:00,79.3,72.0,30.16,South,180,2.0,4.0,78,0.00,,,0.00,weatherlink.com 1.10,2013-09-11 16:22:00,
2013-09-11 12:37:00,80.5,72.0,30.15,South,181,1.0,3.0,76,0.00,,,0.00,weatherlink.com 1.10,2013-09-11 16:37:00,
2013-09-11 12:52:00,81.6,71.0,30.15,West,270,3.0,7.0,70,0.00,,,0.00,weatherlink.com 1.10,2013-09-11 16:52:00,
2013-09-11 13:07:00,82.4,70.0,30.15,SW,226,4.0,7.0,66,0.00,,,0.00,weatherlink.com 1.10,2013-09-11 17:07:00,
2013-09-11 13:22:00,83.1,72.0,30.14,SW,232,2.0,6.0,69,0.00,,,0.00,weatherlink.com 1.10,2013-09-11 17:22:00,
2013-09-11 13:37:00,83.1,72.0,30.13,WSW,253,5.0,6.0,69,0.00,,,0.00,weatherlink.com 1.10,2013-09-11 17:37:00,
2013-09-11 13:52:00,83.6,72.0,30.12,West,263,2.0,6.0,69,0.00,,,0.00,weatherlink.com 1.10,2013-09-11 17:52:00,
2013-09-11 14:07:00,83.5,72.0,30.11,SW,223,2.0,7.0,68,0.00,,,0.00,weatherlink.com 1.10,2013-09-11 18:07:00,
2013-09-11 14:22:00,84.3,72.0,30.11,WNW,289,4.0,7.0,67,0.00,,,0.00,weatherlink.com 1.10,2013-09-11 18:22:00,
2013-09-11 14:37:00,84.6,71.0,30.11,SW,235,3.0,7.0,64,0.00,,,0.00,weatherlink.com 1.10,2013-09-11 18:37:00,
2013-09-11 14:53:00,84.8,72.0,30.10,WSW,237,2.0,7.0,65,0.00,,,0.00,weatherlink.com 1.10,2013-09-11 18:53:00,
2013-09-11 15:08:00,85.7,72.0,30.09,WNW,299,3.0,6.0,63,0.00,,,0.00,weatherlink.com 1.10,2013-09-11 19:08:00,
2013-09-11 15:23:00,85.8,72.0,30.09,WNW,302,3.0,5.0,63,0.00,,,0.00,weatherlink.com 1.10,2013-09-11 19:23:00,
2013-09-11 15:38:00,85.6,70.0,30.09,SSW,192,1.0,7.0,60,0.00,,,0.00,weatherlink.com 1.10,2013-09-11 19:38:00,
2013-09-11 15:53:00,86.6,72.0,30.08,WSW,237,4.0,5.0,61,0.00,,,0.00,weatherlink.com 1.10,2013-09-11 19:53:00,
2013-09-11 16:08:00,85.9,70.0,30.07,West,265,0.0,6.0,60,0.00,,,0.00,weatherlink.com 1.10,2013-09-11 20:08:00,
2013-09-11 16:23:00,86.1,71.0,30.07,SSW,195,5.0,7.0,61,0.00,,,0.00,weatherlink.com 1.10,2013-09-11 20:23:00,
2013-09-11 16:38:00,86.3,73.0,30.07,SW,227,5.0,5.0,64,0.00,,,0.00,weatherlink.com 1.10,2013-09-11 20:38:00,
2013-09-11 16:53:00,85.8,72.0,30.06,South,187,2.0,7.0,63,0.00,,,0.00,weatherlink.com 1.10,2013-09-11 20:53:00,
2013-09-11 17:08:00,85.4,73.0,30.06,West,270,3.0,4.0,66,0.00,,,0.00,weatherlink.com 1.10,2013-09-11 21:08:00,
2013-09-11 17:23:00,84.1,73.0,30.05,WSW,239,1.0,4.0,69,0.00,,,0.00,weatherlink.com 1.10,2013-09-11 21:23:00,
2013-09-11 17:38:00,83.8,73.0,30.05,South,174,1.0,4.0,70,0.00,,,0.00,weatherlink.com 1.10,2013-09-11 21:38:00,
2013-09-11 17:53:00,83.6,73.0,30.05,SW,221,1.0,3.0,71,0.00,,,0.00,weatherlink.com 1.10,2013-09-11 21:53:00,
2013-09-11 18:08:00,83.4,74.0,30.05,SW,228,0.0,2.0,72,0.00,,,0.00,weatherlink.com 1.10,2013-09-11 22:08:00,
2013-09-11 18:23:00,83.7,74.0,30.05,SW,228,0.0,1.0,73,0.00,,,0.00,weatherlink.com 1.10,2013-09-11 22:23:00,
2013-09-11 18:38:00,83.9,74.0,30.05,SW,228,0.0,3.0,72,0.00,,,0.00,weatherlink.com 1.10,2013-09-11 22:38:00,
2013-09-11 18:53:00,83.8,74.0,30.05,SW,228,0.0,1.0,73,0.00,,,0.00,weatherlink.com 1.10,2013-09-11 22:53:00,
2013-09-11 19:08:00,82.6,74.0,30.05,SW,228,0.0,1.0,76,0.00,,,0.00,weatherlink.com 1.10,2013-09-11 23:08:00,
2013-09-11 19:23:00,81.5,74.0,30.05,SW,228,0.0,1.0,79,0.00,,,0.00,weatherlink.com 1.10,2013-09-11 23:23:00,
2013-09-11 19:38:00,80.6,74.0,30.05,SW,228,0.0,1.0,81,0.00,,,0.00,weatherlink.com 1.10,2013-09-11 23:38:00,
2013-09-11 19:53:00,80.1,74.0,30.05,SW,228,0.0,0.0,82,0.00,,,0.00,weatherlink.com 1.10,2013-09-11 23:53:00,
2013-09-11 20:08:00,79.8,74.0,30.06,SW,228,1.0,1.0,81,0.00,,,0.00,weatherlink.com 1.10,2013-09-12 00:08:00,
2013-09-11 20:23:00,79.0,74.0,30.06,SW,228,0.0,1.0,84,0.00,,,0.00,weatherlink.com 1.10,2013-09-12 00:23:00,
2013-09-11 20:38:00,78.6,74.0,30.06,SW,228,0.0,1.0,85,0.00,,,0.00,weatherlink.com 1.10,2013-09-12 00:38:00,
2013-09-11 20:53:00,77.8,74.0,30.06,SW,228,0.0,1.0,87,0.00,,,0.00,weatherlink.com 1.10,2013-09-12 00:53:00,
2013-09-11 21:08:00,77.1,74.0,30.07,SW,228,0.0,0.0,89,0.00,,,0.00,weatherlink.com 1.10,2013-09-12 01:08:00,
2013-09-11 21:23:00,77.0,74.0,30.06,SW,228,0.0,0.0,89,0.00,,,0.00,weatherlink.com 1.10,2013-09-12 01:23:00,
2013-09-11 21:38:00,76.5,74.0,30.06,SW,228,0.0,1.0,90,0.00,,,0.00,weatherlink.com 1.10,2013-09-12 01:38:00,
2013-09-11 21:53:00,75.5,73.0,30.06,SW,228,0.0,1.0,92,0.00,,,0.00,weatherlink.com 1.10,2013-09-12 01:53:00,
2013-09-11 22:08:00,74.8,73.0,30.06,NNE,25,3.0,3.0,93,0.00,,,0.00,weatherlink.com 1.10,2013-09-12 02:08:00,
2013-09-11 22:23:00,74.4,72.0,30.06,ENE,66,0.0,1.0,93,0.00,,,0.00,weatherlink.com 1.10,2013-09-12 02:23:00,
2013-09-11 22:38:00,74.2,72.0,30.06,ENE,64,0.0,1.0,92,0.00,,,0.00,weatherlink.com 1.10,2013-09-12 02:38:00,
2013-09-11 22:53:00,73.7,72.0,30.06,ENE,64,0.0,1.0,93,0.00,,,0.00,weatherlink.com 1.10,2013-09-12 02:53:00,
2013-09-11 23:08:00,73.6,72.0,30.05,ENE,64,0.0,1.0,93,0.00,,,0.00,weatherlink.com 1.10,2013-09-12 03:08:00,
2013-09-11 23:23:00,73.2,71.0,30.05,ENE,64,0.0,0.0,94,0.00,,,0.00,weatherlink.com 1.10,2013-09-12 03:23:00,
2013-09-11 23:38:00,72.8,71.0,30.05,ENE,64,0.0,2.0,94,0.00,,,0.00,weatherlink.com 1.10,2013-09-12 03:38:00,
2013-09-11 23:53:00,72.6,71.0,30.05,ENE,64,0.0,0.0,94,0.00,,,0.00,weatherlink.com 1.10,2013-09-12 03:53:00,